Location: Falconara Alta
(43.6167°N, 13.4000°E)
Time: 19:23:47
(UTC+00:00)

Resurs 01 Rocket - Pass Details

Date: 09 April 2020
Orbit: 635 x 643 km, 98.0° (Epoch: 25 May)

Event Time Altitude Azimuth Distance (km) Brightness Sun altitude
Exits shadow 20:55:17 13° 251° (WSW) 1,814 4.1 -30.3°
Maximum altitude 20:56:29 15° 269° (W) 1,743 4.2 -30.4°
Drops below altitude 10° 20:58:56 10° 303° (WNW) 2,031 5.0 -30.7°
Sets 21:02:07 0° 328° (NNW) 2,947 6.2 -31.1°
